sat.trackr.live / text

‹ back to catalog

LUNA-2

NORAD 68470 · 2026-067BG

PAYLOAD ACTIVE UNKNOWN

§ Identity

Operator
Country
TURK
Launch date
2026-03-30
Launch site
AFWTR
Launch vehicle
Mass (kg)
RCS (m²)

External: N2YO · Heavens-Above · Gunter

§ Orbital elements

Epoch: 2026-09-19T19:03:10.982304Z

Period
94.83 min
Inclination
97.4578°
Eccentricity
0.0008830
Mean motion
15.18426914 rev/d
Perigee alt
504.5 km
Apogee alt
516.7 km
Semi-major
6,888.7 km
B*
2.0558e-4
RAAN
219.6173°
Arg perigee
98.0616°
Mean anomaly
262.1621°
Rev number
2,628

§ Raw data

LUNA-21 68470U 26067BG  26262.79387711  .00004167  00000+0  20558-3 0  99972 68470  97.4578 219.6173 0008830  98.0616 262.1621 15.18426914 26284

JSON: /api/v1/satellites/68470 · /tle

For live sub-satellite position, see the globe view (requires WebGL).

§ Visibility from observer

Set your observer location to see the next 7 days of passes ≥ 10°. The values pass through the URL so the page stays shareable.

No JS? Fill the form by hand. The geolocation button needs JavaScript.

§ Radio — SatNOGS DB

ModeDescriptionDownlinkUplink
GMSK Mode U - GMSK9k6 - Transmitter 401.725 MHz

1 transmitter · refreshed weekly from db.satnogs.org